Location: Bohy
(49.9380°N, 13.5753°E)
Time: 06:05:51
(UTC+00:00)

Cosmos 2322 Rocket - Pass Details

Date: 19 May 2025
Orbit: 832 x 849 km, 71.0° (Epoch: 22 June)

Event Time Altitude Azimuth Distance (km) Brightness Sun altitude
Rises 22:49:45 0° 329° (NNW) 3,416 6.4 -20.0°
Reaches altitude 10° 22:52:12 10° 328° (NNW) 2,475 5.5 -20.0°
Maximum altitude 22:57:52 76° 245° (WSW) 872 2.1 -20.1°
Enters shadow 23:00:04 39° 167° (SSE) 1,250 2.6 -20.1°
